Location: Newark
(58.6000°N, 7.8338°E)
Time: 19:46:05
(UTC+00:00)

ISS - Visible Passes

Search period start: 25 August 2019 00:00
Search period end: 04 September 2019 00:00
Orbit: 410 x 421 km, 51.6° (Epoch: 26 August)

Date Brightness Start Highest point End Pass type
(mag) Time Alt. Az. Time Alt. Az. Time Alt. Az.
01 Sep -1.3 03:36:09 10° S 03:37:59 14° SSE 03:39:49 10° ESE visible
02 Sep -1.2 02:48:28 10° SSE 02:49:24 11° SSE 02:50:19 10° SE visible
03 Sep -1.9 03:34:04 10° SSW 03:36:34 20° SSE 03:39:04 10° ESE visible
